Tracking 28799 objects as of 18-Apr-2024
HD Live streaming from Space Station
objects crossing your sky now

CZ-6A DEB

Track CZ-6A DEB now!
10-day predictions


NORAD ID: 56669
Int'l Code: 2022-151AGV
Perigee: 539.5 km
Apogee: 728.9 km
Inclination: 98.6 °
Period: 97.2 minutes
Semi major axis: 7005 km
RCS: Unknown
Launch date: November 11, 2022
Source: People's Republic of China (PRC)
Launch site: Taiyaun Space Center, China (TSC)

Note: This is SATELLITE DEBRIS
Your satellite tracking list
Your tracking list is empty




NASA's NSSDC Master Catalog

Two Line Element Set (TLE):
1 56669U 22151AGV 24108.05492560  .00127140  00000-0  13906-1 0  9994
2 56669  98.6165 146.6731 0135210 130.0072 231.3098 14.80720409 57690
Source of the keplerian elements: AFSPC